Wetbulb
42.10 38.94 36.43 39.76 42.56 39.82 39.32 40.23 39.20 37.57 43.06 39.61 38.87 40.42 43.39 43.54 39.70 39.65 40.52 43.54 50.03 52.11 55.55 56.24 57.12 57.90 58.86 61.14 61.83 62.15 61.96 61.98 61.64 61.16 60.83 60.87 61.10 61.87 62.44 62.76 62.77 62.96 62.41 61.42
39.89 36.18 38.85 39.06 39.87 39.40 39.34 38.07 37.69 39.92 38.93 37.91 37.15 36.52 39.71 41.89 41.53 42.38 42.43 41.12 44.58 49.64 50.96 52.55 55.10 56.54 57.42 58.97 61.10 61.95 62.26 62.34 62.04 62.25 62.35 62.50 62.88 63.21 63.86 63.76 63.27 62.87 62.57 61.94
36.76 38.35 41.23 39.47 36.86 35.96 35.29 34.40 33.19 35.56 35.52 36.30 33.46 34.17 36.21 40.65 39.81 40.46 40.41 41.78 42.21 45.10 48.37 49.95 48.70 53.45 55.67 57.13 58.80 60.90 62.19 62.50 62.64 62.96 62.20 60.46 61.11 61.91 62.35 62.71 62.98 62.67 62.99 62.11
39.42 41.58 40.03 38.59 37.07 37.10 33.41 38.06 36.85 35.35 34.08 27.95 32.45 26.20 33.14 38.39 41.59 38.39 41.11 40.27 41.06 41.65 43.72 46.20 45.88 45.85 50.65 55.36 57.94 60.06 61.44 62.29 62.67 63.11 61.98 61.61 61.23 60.65 62.20 62.95 63.71 63.08 63.39 62.85
36.92 36.08 38.48 36.92 37.01 39.45 35.89 37.61 36.80 35.86 32.61 29.96 28.93 26.21 29.59 33.89 37.19 41.89 41.62 40.55 41.64 42.09 42.72 43.70 44.10 46.28 45.78 48.57 54.14 57.62 60.06 61.31 62.29 62.71 62.67 61.95 61.78 62.25 61.94 61.64 61.82 60.97 62.09 63.36
34.90 36.76 40.95 39.26 38.88 39.84 38.05 36.62 34.44 32.21 33.12 26.79 29.73 28.34 28.20 32.49 35.55 37.10 39.07 41.28 42.75 42.91 42.08 42.78 41.34 40.90 41.63 43.74 48.68 53.65 57.28 59.47 61.04 61.96 62.51 62.01 62.09 61.29 60.53 61.03 60.52 60.48 59.91 61.43
32.30 31.20 33.53 37.18 35.04 37.32 37.82 35.45 27.69 26.47 25.84 24.67 25.40 26.59 34.97 34.64 35.25 37.09 39.09 40.41 41.35 42.78 42.19 41.18 40.08 41.12 41.74 43.48 45.33 47.72 53.72 56.70 59.08 60.65 61.44 61.79 61.97 61.25 61.16 60.99 61.08 59.33 59.45 59.73
28.57 26.26 31.57 34.35 34.03 33.07 35.93 35.93 27.58 20.99 19.42 23.04 25.26 25.06 32.62 35.90 39.38 37.37 37.18 37.28 37.28 38.20 38.55 39.48 40.88 42.01 42.42 43.64 45.19 45.40 46.32 53.59 56.39 59.27 60.43 61.45 61.42 60.78 60.94 60.55 59.57 59.44 58.91 58.75
27.51 27.91 31.62 33.28 34.77 37.32 31.18 32.33 34.83 27.23 16.99 19.27 24.20 27.78 33.51 34.71 35.26 35.18 35.62 36.11 37.82 38.73 39.12 39.46 39.88 41.48 42.49 43.92 45.40 45.33 44.03 44.45 46.62 53.02 57.40 59.78 60.54 60.44 59.10 58.10 58.35 57.04 55.50 53.53
31.29 26.57 30.45 31.47 35.06 33.21 34.41 36.79 28.42 28.27 18.71 15.10 22.73 23.94 29.32 30.85 33.65 35.84 35.76 36.23 38.80 39.44 38.74 39.63 40.82 41.71 42.67 44.42 45.82 45.86 44.71 44.50 45.35 45.73 46.69 52.13 56.53 58.69 57.31 55.69 54.20 53.74 51.20 49.86
32.18 30.13 27.97 32.01 30.31 29.55 29.71 30.44 29.80 30.77 26.76 20.92 17.69 24.99 30.35 33.66 36.00 36.46 37.27 36.21 36.89 38.62 38.43 39.66 40.93 41.56 42.38 43.49 44.46 45.05 45.02 44.65 45.03 45.34 46.66 48.63 51.04 52.51 52.62 52.04 50.81 49.43 46.90 44.84
32.27 29.65 24.74 27.26 30.28 31.90 32.31 31.65 33.32 26.76 23.06 23.32 23.59 28.59 34.14 33.39 33.68 34.24 35.16 35.70 36.47 38.13 38.65 39.33 40.98 40.86 40.94 42.03 42.87 43.23 43.14 43.33 43.19 43.03 45.57 46.86 46.22 47.26 47.59 46.45 44.97 45.02 42.39 40.89
33.33 27.36 18.45 24.96 28.70 29.47 28.77 29.98 34.08 32.45 27.63 23.31 20.49 27.73 36.22 39.17 39.60 35.55 35.64 37.08 36.82 37.52 38.30 38.81 39.02 39.14 40.22 40.94 41.22 41.25 41.22 41.41 40.21 40.73 42.59 42.40 43.43 44.49 43.16 41.98 40.75 40.77 39.16 37.83
39.50 29.22 27.66 25.05 26.36 29.03 27.91 28.88 29.19 30.85 24.55 28.66 26.31 31.03 35.90 33.44 33.87 34.34 35.31 35.44 36.55 37.11 37.71 38.13 38.29 39.01 39.27 39.45 39.48 39.41 39.55 39.26 38.30 38.79 40.77 40.36 40.55 41.05 40.11 38.99 38.63 37.70 37.31 35.53
35.21 26.90 26.44 27.75 29.15 30.21 29.68 30.03 29.27 28.69 32.39 28.55 31.92 30.74 34.96 34.48 36.40 36.43 35.57 34.85 36.43 36.92 37.08 38.02 38.52 38.48 38.41 38.36 38.33 38.38 38.00 37.05 37.04 37.50 38.02 36.92 36.27 36.90 36.65 35.75 34.97 34.27 34.33 33.41
32.93 25.84 28.06 23.95 28.66 28.26 24.89 30.24 31.72 32.40 33.01 31.49 32.82 30.21 37.79 33.83 33.94 35.91 37.05 36.19 36.18 37.12 38.57 38.47 38.56 37.65 37.55 38.32 38.31 37.20 36.59 35.95 36.00 36.10 35.28 34.57 35.35 34.84 34.46 33.60 33.04 32.89 31.92 31.93
30.73 24.90 20.38 23.66 27.93 27.00 25.98 29.97 30.43 31.10 32.72 33.74 29.62 36.17 35.32 33.54 35.14 37.13 37.53 37.24 38.21 39.04 37.77 38.18 38.75 38.46 38.61 38.37 38.19 36.90 36.06 34.59 34.75 34.34 33.27 33.51 33.69 33.01 32.76 32.19 31.93 31.07 31.13 31.21
31.29 27.83 23.68 14.14 22.40 20.36 30.32 33.99 35.82 33.78 35.70 35.90 36.60 33.07 35.87 38.17 39.53 38.70 38.57 38.93 38.23 38.03 38.02 38.58 39.73 39.61 39.34 38.75 37.43 36.08 34.76 34.10 33.46 33.02 32.53 31.94 32.32 31.71 31.23 30.90 30.58 29.93 30.33 30.24
31.18 29.41 22.04 23.58 17.10 25.89 31.08 28.96 28.77 29.51 32.39 36.24 35.43 35.03 34.28 34.96 32.70 36.10 37.71 38.44 39.92 38.76 39.77 40.83 41.43 41.07 39.17 37.60 37.03 35.53 33.91 33.38 32.75 31.92 31.60 31.18 31.27 30.70 30.07 30.05 29.50 29.10 29.15 28.61
29.62 33.06 30.64 21.69 24.00 19.58 27.64 34.39 34.25 34.82 28.42 35.40 34.61 34.63 34.19 33.06 29.67 37.74 38.32 37.91 38.89 39.31 39.84 39.87 39.98 38.71 37.49 36.95 35.65 34.52 33.47 32.94 32.48 32.27 31.82 31.29 31.24 31.12 30.57 29.77 28.56 27.41 28.60 27.79
19.90 19.55 27.35 22.20 23.91 21.68 30.19 30.81 35.70 25.88 28.23 33.26 34.71 36.15 34.16 33.35 38.47 36.10 36.25 36.46 36.53 37.28 37.51 38.63 38.28 37.17 37.04 34.93 34.85 34.20 33.18 32.83 33.37 32.14 30.95 30.27 30.25 30.44 29.83 28.14 26.83 27.44 27.47 27.22
25.03 23.77 22.73 12.06 23.10 22.19 29.02 30.06 32.08 34.46 31.12 32.28 33.22 32.79 33.30 33.85 33.39 33.71 34.65 35.29 35.51 35.10 35.66 34.95 34.26 33.57 32.81 33.89 34.46 33.58 32.83 33.24 31.42 30.94 30.03 29.23 29.47 29.42 28.91 27.79 26.48 26.57 27.01 26.47
22.40 28.71 24.19 29.01 27.49 30.74 29.30 30.19 32.02 33.25 33.49 32.73 32.73 33.07 34.26 32.52 31.52 32.15 33.52 33.05 33.14 33.29 33.17 30.99 31.12 30.47 30.14 32.51 34.18 33.18 32.62 30.70 30.56 30.45 29.71 29.16 28.36 28.08 27.90 26.80 25.65 25.67 26.58 26.33
26.44 26.83 28.53 28.51 27.27 29.16 30.30 31.46 31.99 31.99 32.05 32.59 32.40 31.31 31.71 31.55 32.37 31.80 31.98 31.74 31.14 29.46 30.69 27.64 29.07 28.97 28.18 28.29 29.83 30.89 30.02 30.63 31.14 30.10 28.39 27.48 27.48 26.40 26.67 26.92 26.65 26.59 26.20 25.73
29.55 30.78 25.03 23.95 27.06 29.34 31.14 31.35 32.18 31.29 32.08 31.72 31.39 31.45 31.85 31.70 31.00 30.97 28.68 26.76 28.96 28.11 25.76 26.56 27.44 27.42 26.47 27.14 28.16 29.36 29.86 30.98 30.37 29.01 27.20 27.26 27.34 26.58 25.33 25.30 25.98 26.29 26.64 27.91
29.35 28.77 31.09 29.45 31.59 32.05 32.32 32.16 32.06 30.96 30.94 31.49 31.53 30.06 29.89 30.56 30.63 27.11 25.00 24.91 24.13 24.22 23.29 24.17 23.84 24.64 23.73 25.40 25.90 27.61 30.14 31.33 29.45 27.03 26.09 26.71 25.78 25.36 24.50 23.25 21.45 25.22 25.76 26.96
MSLP
1017.24 1017.41 1017.23 1017.69 1018.11 1018.63 1019.78 1020.09 1020.20 1020.06 1019.69 1019.82 1019.60 1019.34 1018.36 1018.12 1018.42 1018.44 1018.40 1018.76 1018.71 1018.57 1018.41 1018.74 1019.06 1019.47 1019.91 1020.22 1020.72 1020.85 1021.19 1021.68 1022.49 1023.01 1023.48 1024.02 1023.98 1024.22 1024.52 1024.70 1024.86 1025.19 1025.52 1025.89
1017.75 1017.24 1017.94 1018.26 1018.62 1019.17 1019.84 1020.17 1020.57 1020.30 1020.03 1020.43 1019.86 1019.34 1017.99 1017.73 1017.52 1017.29 1017.27 1017.59 1017.93 1017.91 1018.15 1018.38 1018.55 1018.90 1019.28 1019.49 1019.73 1020.21 1020.67 1020.86 1021.50 1022.16 1022.36 1022.77 1023.12 1023.34 1023.31 1023.88 1024.16 1024.35 1024.68 1025.13
1017.10 1017.54 1017.96 1018.51 1018.94 1019.46 1019.76 1020.00 1020.51 1020.69 1020.67 1020.56 1020.41 1018.94 1017.90 1016.56 1016.56 1016.41 1016.37 1016.50 1017.03 1017.38 1017.18 1017.64 1018.07 1018.12 1018.39 1018.78 1019.13 1019.34 1019.67 1020.14 1020.40 1021.05 1021.76 1022.60 1022.92 1023.23 1023.43 1023.70 1023.96 1023.89 1024.04 1024.34
1017.93 1017.53 1018.04 1018.74 1018.99 1019.32 1019.62 1019.69 1020.16 1020.67 1021.18 1021.38 1020.84 1019.34 1017.24 1015.94 1015.37 1015.51 1015.81 1015.95 1016.17 1016.46 1016.73 1016.54 1017.28 1017.48 1017.52 1017.41 1018.23 1018.67 1018.87 1019.59 1019.91 1020.44 1020.95 1021.46 1021.73 1022.11 1022.46 1022.84 1023.09 1023.08 1023.40 1023.94
1017.10 1017.67 1018.24 1018.34 1018.21 1018.84 1019.31 1019.69 1020.32 1020.78 1021.76 1022.07 1021.20 1021.07 1016.69 1015.81 1014.68 1014.47 1014.58 1015.05 1015.08 1015.12 1015.55 1015.89 1015.93 1016.07 1016.30 1016.86 1017.21 1017.80 1018.26 1018.75 1019.32 1019.74 1020.06 1020.65 1020.93 1021.11 1021.54 1022.08 1022.63 1023.00 1022.94 1023.15
1017.26 1017.29 1017.38 1017.27 1017.99 1018.62 1019.62 1020.65 1021.47 1021.74 1022.47 1022.76 1021.32 1021.19 1016.55 1015.65 1014.54 1013.86 1014.06 1013.91 1013.88 1014.19 1014.19 1014.88 1015.41 1015.90 1016.19 1016.35 1016.86 1017.25 1017.60 1017.87 1018.25 1018.89 1019.26 1019.69 1020.05 1020.54 1021.05 1021.38 1021.87 1022.46 1022.84 1022.98
1017.45 1017.61 1017.33 1017.26 1018.31 1019.06 1019.45 1021.09 1022.63 1023.52 1023.87 1021.80 1021.05 1020.79 1015.25 1015.00 1014.29 1013.95 1013.80 1013.40 1013.26 1013.35 1013.78 1014.18 1015.05 1015.56 1015.73 1016.08 1016.24 1016.52 1016.98 1017.42 1017.59 1018.12 1018.49 1018.95 1019.28 1019.72 1020.03 1020.62 1020.94 1021.77 1022.53 1022.93
1016.71 1017.77 1017.13 1017.11 1017.32 1018.21 1019.56 1020.68 1021.24 1022.18 1023.15 1022.26 1021.31 1019.41 1015.22 1014.25 1013.03 1013.44 1013.32 1013.47 1013.76 1013.94 1013.83 1014.36 1014.39 1014.67 1015.23 1015.65 1015.79 1016.03 1016.44 1016.90 1017.38 1017.67 1017.96 1018.49 1018.84 1019.36 1019.57 1019.94 1020.40 1021.05 1021.66 1022.31
1015.70 1016.58 1016.58 1016.66 1016.75 1017.28 1019.45 1019.92 1020.31 1021.57 1023.18 1022.51 1020.40 1018.03 1015.45 1014.07 1013.77 1013.41 1013.48 1013.73 1013.73 1013.59 1013.63 1013.93 1014.48 1014.71 1015.22 1015.61 1015.74 1015.79 1016.10 1016.47 1016.94 1017.46 1017.69 1018.10 1018.52 1019.13 1019.50 1019.81 1020.08 1020.79 1021.69 1022.42
1014.58 1016.15 1016.65 1016.84 1016.76 1017.20 1017.14 1018.64 1020.15 1020.67 1021.99 1021.66 1019.45 1017.85 1015.07 1013.90 1013.77 1013.53 1013.55 1013.41 1012.99 1013.32 1013.84 1014.24 1014.47 1014.86 1014.93 1015.61 1015.87 1016.14 1016.20 1016.25 1016.60 1017.05 1017.81 1018.19 1018.27 1018.59 1019.25 1019.83 1020.28 1020.79 1021.47 1022.21
1014.32 1014.91 1017.22 1016.98 1016.41 1016.35 1017.42 1017.83 1018.41 1019.14 1019.77 1019.43 1018.65 1015.92 1013.71 1013.18 1012.97 1013.11 1012.94 1013.46 1013.63 1013.65 1013.78 1013.92 1014.38 1014.73 1014.95 1015.57 1016.03 1016.17 1016.50 1016.41 1016.72 1017.09 1017.48 1018.04 1018.36 1018.48 1019.19 1019.76 1020.20 1020.64 1021.50 1022.35
1013.76 1014.88 1016.89 1016.64 1016.24 1016.08 1016.17 1016.27 1017.18 1017.82 1018.31 1018.49 1017.72 1014.30 1012.22 1012.38 1012.72 1012.94 1013.00 1013.27 1013.20 1013.52 1013.64 1013.86 1013.90 1014.48 1014.82 1015.49 1016.32 1016.54 1016.43 1016.46 1016.62 1016.92 1017.37 1017.86 1018.26 1018.64 1019.30 1020.11 1020.55 1020.78 1021.36 1022.61
1012.97 1014.32 1016.67 1017.29 1016.84 1016.37 1016.04 1015.98 1015.83 1016.62 1017.27 1017.41 1017.18 1013.97 1011.48 1011.31 1011.88 1012.42 1012.78 1012.83 1012.96 1013.44 1013.85 1014.57 1014.87 1014.85 1014.85 1015.04 1016.07 1016.55 1016.77 1016.93 1017.12 1017.28 1017.59 1017.94 1018.40 1018.76 1019.55 1020.26 1020.77 1021.30 1021.94 1022.75
1012.35 1013.76 1014.07 1013.96 1013.89 1014.38 1015.82 1015.53 1015.82 1016.30 1016.75 1015.62 1015.24 1013.70 1010.81 1011.52 1011.72 1011.95 1012.41 1012.65 1012.95 1013.34 1013.88 1014.13 1014.68 1014.94 1014.91 1014.93 1015.79 1016.55 1016.91 1017.06 1017.38 1017.52 1017.99 1018.13 1018.56 1018.96 1019.83 1020.60 1021.09 1021.63 1022.43 1023.02
1012.62 1013.57 1014.40 1014.30 1014.17 1014.15 1014.37 1014.68 1015.09 1015.40 1014.34 1014.37 1013.03 1013.04 1009.92 1011.25 1011.55 1011.34 1011.23 1011.74 1012.54 1012.87 1013.18 1013.33 1013.81 1014.21 1014.68 1015.10 1015.41 1016.27 1016.94 1017.37 1017.34 1018.04 1018.27 1018.31 1018.92 1019.65 1020.39 1021.21 1021.76 1022.01 1023.12 1023.81
1012.84 1013.66 1014.38 1014.71 1014.44 1014.42 1014.60 1014.00 1013.45 1013.22 1012.95 1013.07 1011.91 1011.80 1009.59 1010.32 1011.03 1011.33 1011.14 1011.59 1012.06 1011.98 1012.16 1012.62 1013.55 1014.22 1014.54 1014.64 1014.87 1015.57 1016.41 1017.15 1017.64 1018.27 1018.57 1018.88 1019.41 1020.09 1020.76 1021.49 1022.16 1022.72 1023.51 1024.00
1012.37 1013.56 1014.76 1015.02 1015.25 1015.01 1014.62 1010.99 1012.59 1012.39 1011.58 1011.23 1011.06 1007.16 1010.26 1010.05 1010.48 1010.43 1010.37 1010.85 1011.09 1010.74 1011.13 1011.61 1011.89 1012.77 1013.25 1013.50 1014.15 1014.88 1015.87 1016.90 1017.57 1018.12 1018.71 1019.19 1019.70 1020.51 1021.28 1021.79 1022.37 1023.17 1023.91 1024.35
1011.96 1013.49 1014.31 1015.42 1015.40 1014.62 1010.21 1010.21 1010.59 1010.85 1009.94 1009.91 1008.89 1009.25 1009.34 1009.50 1009.63 1009.54 1009.53 1009.75 1009.52 1009.98 1010.16 1010.46 1010.91 1011.67 1012.40 1013.07 1013.84 1014.60 1015.51 1016.41 1017.16 1017.90 1018.53 1019.24 1019.80 1020.47 1021.30 1021.92 1022.66 1023.40 1024.05 1024.55
1011.94 1013.30 1014.74 1015.26 1015.43 1012.72 1010.05 1010.73 1010.76 1010.38 1008.08 1008.79 1008.62 1009.45 1009.57 1009.63 1009.88 1008.78 1008.31 1008.46 1008.64 1008.65 1008.79 1008.96 1009.58 1010.60 1011.72 1012.68 1013.46 1014.23 1015.21 1016.04 1016.81 1017.55 1018.41 1019.13 1019.77 1020.55 1021.20 1021.91 1022.70 1023.43 1024.10 1024.68
1012.21 1012.53 1013.57 1014.63 1014.68 1012.43 1009.27 1008.94 1009.80 1010.03 1007.12 1007.94 1008.35 1008.70 1009.06 1009.55 1009.83 1007.16 1007.28 1007.57 1007.64 1008.00 1008.34 1008.96 1009.43 1010.26 1011.11 1011.97 1012.98 1013.89 1014.57 1015.39 1016.10 1016.74 1017.62 1018.61 1019.32 1020.05 1020.96 1021.81 1022.63 1023.25 1023.82 1024.46
1013.20 1013.24 1012.96 1013.79 1013.47 1010.84 1009.11 1008.30 1009.02 1009.94 1007.42 1007.15 1007.35 1007.62 1008.47 1008.86 1007.23 1007.35 1007.51 1007.80 1008.08 1008.43 1008.69 1008.85 1009.28 1009.84 1010.39 1011.55 1012.71 1013.46 1014.20 1014.51 1015.30 1016.44 1017.39 1018.35 1019.20 1019.91 1020.71 1021.65 1022.42 1023.23 1023.86 1024.66
1010.86 1012.18 1012.80 1012.80 1012.31 1010.42 1008.82 1009.22 1008.55 1007.65 1007.47 1007.72 1007.71 1007.62 1007.89 1007.70 1007.98 1008.16 1008.35 1008.61 1008.97 1009.25 1009.30 1009.56 1009.98 1010.35 1010.91 1011.52 1012.37 1013.22 1013.79 1014.60 1015.38 1016.37 1017.34 1018.36 1019.23 1020.13 1020.90 1021.67 1022.63 1023.31 1023.78 1024.64
1009.92 1008.46 1009.71 1010.06 1008.38 1008.08 1007.90 1007.62 1007.64 1007.50 1007.48 1007.76 1007.76 1008.03 1008.01 1008.19 1008.49 1008.82 1009.18 1009.59 1009.99 1010.25 1010.33 1010.40 1010.59 1011.12 1011.55 1011.73 1011.89 1012.61 1013.35 1014.30 1015.37 1016.47 1017.38 1018.31 1019.33 1020.14 1020.81 1021.47 1022.42 1023.28 1023.75 1024.17
1008.79 1008.56 1008.31 1008.92 1007.91 1007.98 1008.02 1008.12 1008.03 1007.95 1007.97 1008.21 1008.35 1008.44 1008.56 1008.87 1009.37 1009.75 1010.12 1010.58 1010.92 1011.25 1011.30 1011.34 1011.42 1011.82 1012.27 1012.45 1012.64 1013.08 1013.79 1014.49 1015.28 1016.26 1017.24 1018.25 1019.06 1019.90 1020.69 1021.31 1022.10 1022.58 1023.03 1023.76
1007.24 1007.92 1007.89 1008.02 1008.05 1008.28 1008.06 1008.10 1008.18 1008.59 1008.58 1008.93 1009.25 1009.33 1009.40 1009.68 1010.09 1010.35 1010.84 1011.44 1011.80 1011.96 1012.09 1012.19 1012.30 1012.46 1012.72 1012.88 1013.17 1013.48 1013.91 1014.44 1015.33 1016.27 1017.28 1018.16 1019.01 1019.82 1020.42 1021.16 1021.80 1022.04 1022.39 1022.49
1006.23 1006.42 1006.74 1006.76 1006.82 1007.17 1007.31 1007.63 1008.26 1008.72 1009.22 1009.50 1009.79 1010.22 1010.44 1010.68 1011.05 1011.32 1011.77 1012.06 1012.55 1012.80 1012.94 1013.04 1013.23 1013.32 1013.42 1013.44 1013.77 1014.00 1014.13 1014.43 1015.20 1016.20 1017.08 1017.93 1018.83 1019.70 1020.48 1021.22 1021.92 1022.12 1022.26 1022.64
Wind_Speed
1 5 14 15 8 5 6 3 6 0 4 3 6 12 16 11 5 8 10 9 12 14 7 7 9 10 10 10 12 13 13 12 9 6 6 5 6 6 5 6 8 8 7 8
4 10 5 8 9 6 7 4 2 3 3 4 6 10 13 10 9 11 13 10 13 8 7 7 10 12 13 14 15 13 14 13 12 8 7 4 6 5 7 7 9 10 9 8
7 5 7 6 4 9 4 7 5 4 3 2 4 11 10 10 9 9 8 9 7 14 14 12 10 13 12 15 14 15 15 15 14 14 6 3 3 2 4 4 5 7 9 10
6 3 14 9 8 6 6 8 6 5 2 4 1 9 7 8 18 10 11 9 12 12 10 9 12 11 15 16 13 14 14 15 13 14 11 13 10 9 8 7 7 7 9 8
10 11 14 15 8 8 5 7 8 5 4 4 4 3 8 5 14 18 16 12 15 14 14 16 16 17 13 9 13 13 13 14 13 14 14 12 11 9 5 5 7 5 5 8
6 1 12 8 7 13 9 7 9 5 4 6 4 6 6 7 9 6 7 14 16 15 14 15 7 7 7 7 9 11 13 14 14 15 16 16 15 11 8 8 7 6 3 4
3 3 2 6 8 4 7 13 2 3 4 10 3 6 21 6 5 6 9 10 11 12 10 11 11 10 9 11 11 10 13 14 13 15 15 16 15 14 14 12 8 9 5 3
11 7 9 5 8 10 10 10 6 7 6 4 1 11 11 8 10 7 8 9 7 9 7 9 11 11 10 9 10 10 11 11 13 15 15 13 13 9 9 9 6 6 5 6
6 5 3 4 6 12 6 11 7 5 2 3 6 8 11 9 11 7 10 7 12 11 9 10 7 7 6 8 10 10 9 7 9 10 8 11 10 10 8 7 5 6 7 6
6 5 1 1 6 2 13 12 6 3 5 5 6 6 11 3 9 10 9 11 14 9 6 6 5 6 5 5 4 5 7 8 6 7 6 6 5 8 7 7 8 10 10 10
7 5 1 7 10 10 5 9 5 6 7 8 3 8 10 10 10 9 10 7 8 8 9 8 6 5 5 3 5 6 5 6 6 6 6 6 5 6 7 8 9 11 10 10
6 6 4 8 3 4 7 10 17 6 7 3 3 13 7 8 7 7 9 9 8 7 7 6 8 7 6 6 4 4 4 5 5 5 6 7 7 8 8 8 9 11 12 9
9 3 4 5 4 1 8 6 13 8 4 8 7 13 6 16 20 8 8 9 7 7 5 4 3 6 8 8 6 5 5 5 5 5 7 7 8 9 9 10 10 11 12 11
14 4 11 15 3 9 9 7 6 10 5 17 8 20 25 5 7 6 7 9 8 7 7 6 7 7 5 6 6 5 5 5 5 6 7 8 7 9 9 9 10 11 10 12
8 11 2 2 5 6 7 11 12 13 23 13 24 19 30 10 11 10 6 4 5 8 9 10 11 9 8 7 7 6 4 5 5 6 7 8 8 8 9 9 9 11 10 9
4 8 7 2 3 5 1 10 20 22 21 13 21 14 14 4 6 8 11 7 9 10 13 9 7 7 9 10 9 8 7 7 6 6 6 7 9 9 9 10 10 11 10 10
12 8 5 13 6 6 6 22 13 9 12 17 18 36 7 7 9 11 11 8 13 15 6 10 14 14 13 13 12 12 10 8 8 8 8 8 9 10 9 10 11 10 10 9
12 8 4 4 5 11 15 12 19 23 19 19 22 4 8 17 15 10 8 11 14 11 10 10 11 12 12 10 10 10 10 10 9 9 10 9 10 11 10 10 10 9 8 9
2 6 2 6 3 9 24 5 7 10 26 18 18 10 8 7 2 13 12 11 15 12 13 12 10 10 10 12 12 12 11 10 10 11 11 10 11 11 11 11 11 7 9 7
4 6 8 3 8 17 2 18 11 6 26 13 14 16 17 8 8 17 4 7 11 8 5 7 8 8 12 12 13 14 14 14 14 14 13 12 12 13 12 11 10 4 7 7
4 2 17 6 8 10 7 5 10 12 8 7 7 11 9 12 15 0 3 2 4 4 5 5 8 12 12 12 13 14 14 16 13 12 12 12 11 12 11 10 5 8 8 8
12 11 7 4 11 22 6 4 23 8 3 5 4 3 7 7 3 3 4 4 7 6 4 3 5 6 7 11 12 12 13 9 11 12 12 11 11 8 8 11 8 8 9 9
4 9 10 14 11 2 6 1 2 3 5 4 2 2 0 1 1 2 3 4 5 6 3 1 4 5 4 8 11 12 10 13 12 13 12 12 10 9 10 11 10 8 8 7
3 2 5 6 4 6 7 4 4 3 2 3 1 2 2 2 3 3 3 4 3 3 4 2 4 4 3 2 3 4 10 11 13 13 12 11 12 10 9 6 7 8 8 7
5 10 6 3 2 1 5 8 6 5 5 4 3 2 4 4 3 3 3 3 4 4 3 2 2 3 3 3 4 7 10 13 12 11 10 10 8 9 9 6 7 6 5 8
6 8 9 8 7 4 4 9 6 7 6 6 6 4 4 3 4 3 3 2 2 2 3 3 2 3 2 4 5 6 9 11 12 11 9 9 8 7 7 7 4 4 6 11
Wind_Direction
30 125 198 189 200 111 141 153 200 274 246 232 229 246 247 244 224 247 237 231 227 229 235 199 194 194 194 192 195 195 186 192 181 178 185 199 206 196 197 196 199 191 186 181
97 210 165 142 158 150 139 131 202 293 270 183 293 260 261 242 233 226 232 221 232 220 213 210 198 195 201 203 204 197 200 187 189 195 196 187 188 200 198 197 200 190 185 181
159 155 139 135 146 157 155 147 160 209 295 221 287 276 241 241 230 235 237 226 232 228 217 224 208 203 191 206 203 200 200 195 191 192 170 125 114 115 183 186 205 197 190 186
212 192 168 172 184 156 184 165 146 117 49 260 109 284 266 248 237 221 236 219 229 229 235 214 209 209 204 207 203 207 196 199 197 188 185 196 197 194 203 198 202 194 188 199
192 158 176 204 162 163 202 148 174 145 82 360 207 285 270 272 245 235 223 225 230 224 217 233 214 216 209 191 197 200 199 198 195 192 192 196 205 205 184 184 191 187 199 196
168 161 179 184 158 170 133 75 37 43 81 267 205 203 241 218 226 236 224 228 224 227 215 230 233 189 208 189 190 189 191 201 192 192 196 199 204 195 186 188 186 190 189 172
143 171 178 129 111 114 127 150 145 159 203 238 292 171 249 256 268 241 238 246 229 227 225 212 200 203 205 196 195 191 195 203 191 194 197 201 204 197 200 197 189 175 164 166
161 209 164 183 158 154 163 171 164 171 200 245 138 223 248 235 254 244 242 251 287 267 237 234 226 213 211 201 188 180 183 192 197 201 203 204 200 200 200 190 172 173 168 147
131 211 35 151 137 135 180 203 157 86 80 52 217 287 295 256 279 276 250 263 261 249 234 235 230 222 213 193 197 191 179 179 180 198 197 202 198 195 192 172 148 139 128 125
189 122 11 90 94 36 182 147 159 199 204 246 247 258 235 319 261 271 283 247 244 266 262 260 233 209 178 179 176 186 187 181 175 169 186 202 173 176 163 153 149 142 131 127
157 103 346 140 207 162 135 185 192 159 179 186 250 250 195 221 225 236 262 295 288 258 228 208 195 177 155 156 178 179 183 166 165 163 159 165 168 141 144 149 144 138 128 128
187 115 149 206 258 190 185 189 199 181 221 295 125 270 178 230 240 234 275 279 269 253 258 222 185 168 156 163 189 200 176 171 168 151 151 159 143 139 138 140 137 136 130 127
174 180 77 8 344 209 213 196 202 214 62 200 156 258 152 239 261 234 251 270 286 263 239 229 187 185 180 171 178 184 179 165 156 144 145 141 145 143 142 141 135 128 129 127
160 157 189 201 163 130 186 171 183 191 206 235 226 255 254 283 269 269 245 257 268 243 224 194 197 209 195 161 163 173 178 167 156 139 152 144 143 140 138 134 129 128 129 131
155 218 156 16 143 143 171 190 181 192 221 201 239 228 261 212 258 277 262 251 243 245 221 207 205 201 182 177 170 175 167 162 142 149 149 132 118 118 122 121 121 117 122 124
177 240 154 228 118 139 181 212 201 211 221 223 241 266 255 238 219 257 252 251 257 243 233 199 203 196 196 192 187 168 163 163 152 151 136 124 124 125 127 127 126 124 125 128
171 132 110 237 148 89 308 223 205 204 205 207 229 244 159 234 223 238 244 224 248 249 242 199 198 201 199 193 178 177 167 150 156 147 139 138 135 132 134 132 129 130 135 135
185 167 122 161 80 210 263 164 213 223 234 221 245 248 212 232 248 265 230 235 243 235 223 210 206 206 201 181 170 150 152 160 155 150 148 148 146 141 141 137 137 134 141 142
80 142 104 156 186 302 273 208 154 177 248 232 244 240 221 238 263 262 226 219 234 221 223 222 203 198 177 177 169 159 160 158 155 156 158 156 152 148 146 147 148 140 141 135
75 183 180 140 207 229 30 205 160 124 268 189 196 215 215 156 225 250 263 224 249 240 209 194 177 163 171 177 165 164 170 170 177 171 164 160 157 156 157 151 150 135 140 132
100 42 201 176 223 274 238 180 127 189 253 208 193 223 185 197 227 278 14 30 3 341 249 186 172 180 179 159 167 179 175 187 171 160 156 157 158 155 152 142 133 143 137 131
158 160 196 98 219 254 158 35 177 203 233 182 201 196 202 249 281 351 8 1 356 354 355 175 168 165 148 160 170 180 190 161 149 153 152 153 151 149 146 142 135 140 140 143
194 183 171 187 208 222 200 169 185 182 169 214 159 162 220 262 346 338 340 6 356 349 351 44 156 143 161 179 182 180 171 149 150 152 155 153 145 147 153 150 151 149 154 152
268 189 172 103 228 208 192 210 209 204 136 122 68 104 110 74 18 56 30 9 12 1 347 347 121 142 166 139 110 128 142 148 154 155 154 152 155 155 155 147 161 161 162 159
174 138 158 292 288 342 237 211 162 137 112 112 92 94 95 100 63 66 55 18 12 11 354 20 120 128 142 117 120 142 150 153 156 151 151 157 158 165 156 152 171 173 184 183
184 164 180 213 193 156 214 157 162 139 150 154 130 98 46 69 96 88 72 31 8 14 358 48 70 113 155 132 139 148 159 161 153 152 159 165 159 158 159 159 138 193 194 203